Regional Weather Roundup
Issued by NWS

Home | Current Version | Previous Version | Graphics & Text | Print | Product List | Glossary Off
Versions: 1 2 3 4 5 6 7 8 9 10 11 12 13 14 15 16 17 18 19 20 21 22 23 24 25 26 27 28 29 30 31 32 33 34 35 36 37 38 39 40 41 42 43 44 45 46 47 48 49 50

711
ASUS43 KTOP 231508
RWRKS

WEATHER ROUNDUP FOR KANSAS
NATIONAL WEATHER SERVICE GOODLAND KS
1000 AM CDT FRI JUN 23 2017

NOTE:  "FAIR" INDICATES FEW OR NO CLOUDS BELOW 12,000 FEET WITH NO
SIGNIFICANT WEATHER AND/OR OBSTRUCTIONS TO VISIBILITY.

KSZ001>006-013>018-027>032-041>047-231600-
NORTHWEST KANSAS

CITY           SKY/WX    TMP DP  RH WIND       PRES   REMARKS
GOODLAND       CLOUDY    59  46  62 N23G30    30.21R
HAYS           LGT RAIN  59  55  87 NW12      30.14R
HILL CITY      CLOUDY    62  52  69 N12       30.16R
RUSSELL        CLOUDY    60  56  86 N12       30.10R
$$

KSZ061>065-074>080-084>089-231600-
SOUTHWEST KANSAS

CITY           SKY/WX    TMP DP  RH WIND       PRES   REMARKS
DODGE CITY     SUNNY    N/A N/A N/A MISG      30.08R
ELKHART          N/A     63  46  54 N18         N/A
GARDEN CITY    CLOUDY    66  51  58 NE35G41   30.12R
GREAT BEND     PTSUNNY   70  54  56 N20G28    30.08R
LIBERAL        CLOUDY    70  57  63 N30       30.08R
PRATT          SUNNY     73  53  49 N20G31    30.01R
$$

KSZ066>073-081>083-090>101-231600-
SOUTHEAST KANSAS

CITY           SKY/WX    TMP DP  RH WIND       PRES   REMARKS
CHANUTE        CLOUDY    77  68  73 N17G25    29.84R
COFFEYVILLE    PTSUNNY   82  72  71 N10       29.79R
HUTCHINSON     SUNNY     78  55  44 N13G23    29.99R
MEDICINE LODGE   N/A     80  58  46 N22G36    29.94R
NEWTON         SUNNY     78  54  43 N21       29.96R
PARSONS        CLOUDY    80  72  76 N10G21    29.82R
WICHITA INTL   PTSUNNY   80  58  46 N20G26    29.93R
WICHITA JABRA  PTSUNNY   78  60  53 N18G26    29.93R
WICHITA MCCONL CLOUDY    77  59  54 NE20G25   29.93R
WINFIELD       CLOUDY    78  66  66 N21G29    29.91R
$$

KSZ007>012-019>026-033>040-048>060-102>105-231600-
NORTHEAST KANSAS

CITY           SKY/WX    TMP DP  RH WIND       PRES   REMARKS
CONCORDIA      CLOUDY    69  51  52 N12       30.06R
EMPORIA        PTSUNNY   77  63  61 NE14      29.91R
LAWRENCE       CLOUDY    76  64  66 N9        29.89R
MANHATTAN      MOSUNNY   76  55  48 NE10G21   29.93F
MARYSVILLE     CLOUDY    70  54  56 N18G24    30.00R
OLATHE IND     CLOUDY    76  65  68 N15G25    29.88R
OLATHE EXE     CLOUDY    76  66  71 N16G25    29.87R
SALINA         CLOUDY    75  52  44 N14       30.02R
TOPEKA BILLARD PTSUNNY   76  66  71 N12       29.91R
TOPEKA FORBES  PTSUNNY   78  64  61 N13       29.91R
$$




USA.gov is the U.S. government's official web portal to all federal, state and local government web resources and services.